Find Geely Xingzuo 05 zu 02 xing

NORAD ID: 65551 Int'l Des: 2025-201 Owner: GEESP Country: CN Constellation: geesatcom operational
LEOCIRCULAR

Live Position

Loading 3D Globe...

About Geely Xingzuo 05 zu 02 xing

Description loading...

Upcoming Passes

Passes for default location (London). Set your location on the main map for personalized predictions.

Altitude History

Loading altitude history...

Two-Line Element Set

1 65551U 25201B 26106.31054043 .00000973 00000-0 14280-3 0 9994
2 65551 49.9875 326.4289 0008510 87.9979 272.1933 14.83971262 32604
Epoch: Apr 16, 2026 • Age: 21 hours

Current Status

Altitude 637.7 km
Velocity 7.54 km/s
Sub-Earth Point -46.07°S, 62.24°W
Launch Date Sep 8, 2025
Age 0.6 years
Type other

Technical Details

Classification Payload
Mass 130.00 kg
Dry Mass 130.00 kg
Total Mass 130.00 kg
Length 1.00 m
Diameter 0.50 m
Span 2.00 m
Shape Box + 2 pan
Manufacturer GWCG
Bus Type GPS100
Phase Status In Orbit
Owner/State GEESP/CN

Most Searched